BRAVES MUD RACE – WARRIORS

BRAVES

Data:
02/09/2017


RESULTADOS OFICIAIS

  • Para filtrar os resultados por categoria, basta pesquisar pelo código de sua Faixa Etária (ex: “M2029”)
  • Para saber quantos atletas competiram em sua categoria, filtre pelo código de sua Faixa Etária e confira o n° de registros na parte de baixo da janela

Elite Feminino

Coloc.NumeroNomeId.Fx.Et.Cl.Fx.Sx.EquipeTempo
195ANA PAULA SANDOVAL CARLOS30F3045-FPONTO B PARKOUR01:20:28
2101DEBORAH HELENISE LEMOS DE PAULA34F3045-FPONTO B PARKOUR01:21:36
379CARLA ROBERTA BARBOSA33F3045-FHYPER LAPA01:22:45
4133MARIZA ZANIN33F30451F-01:24:55
5373VANESSA TEIXEIRA35F30452FAVULSO01:28:46
6315DAIANY MOTTIN31F30453FREQUINTE01:32:17
796ANDRESSA WIEMERS24F20291FPONTO B PARKOUR01:35:17
8316DEBORA SPERANCETTA35F30454FREQUINTE01:35:47
9278SUELEN PRESSER34F30455FCERVEJARIA KLEIN01:36:10
1082KATRICIE SEMKIO DE ALBUQUERQUE36F30456FJACOMAR01:37:35
11123DYULEM PEDROSO24F20292FTERRITORIO01:37:44
12120RUBIA GLAUCI BACELAR OHPIS41F30457FSTUDIO IN FIT01:37:50
13212SIMONE MEIRA FRANCISCO GOULART40F30458FSTUDIO PERSONAL THAIS LIMA01:42:09
148ALANA DUPONT SILVA20F20293FAVULSO01:43:55
1537CAMILE LOUISE LONGO24F20294FEQUILIBRIUM INSANO01:44:45
16459GABRIELA DESIDERIO33F30459F01:49:10
17118SIMONE DE ALMEIDA GOMES42F304510FPONTO B PARKOUR01:49:12
181ANA PAULA DE OLIVEIRA38F304511F ARAUCARIA CAVEIRA CROSS01:50:58
19441ADRIANA DA SILVA CARVALHO46F46991FSOLO01:51:05
2020LEIA LAIZ CORREA GONZALEZ29F20295FBALBOA TEAM01:52:30
21270ROSELI ISABEL PERFOLL ORTIGA58F46992FAVULSO01:52:47
2270GISELE CAMPOS FERREIRA36F304512FFIT FOR FREE01:53:55
23107IZADORA ZETOLA17F14191FPONTO B PARKOUR02:02:43
24291AMALIA EUGENIA SCHWARTEN BRESSLER30F304513FCROSSFIT BARIGUI02:04:09
2539DANIELA CARLA DA SILVA BARBOZA31F304514FEQUILIBRIUM INSANO02:07:16
2644NICOLE FRANCESCA LONGO33F304515FEQUILIBRIUM INSANO02:07:16
274LARISSA SCHERER31F304516FALFA02:07:46
2816PAOLA MANZI22F20296FAVULSO02:08:39
29121KARINA GIMENEZ KANIA30F304517FTEAM GO WELLNESS02:11:03
3076SILMARA ASSUN?AO44F304518FFIVE ONE FITNESS02:13:53
31126DESIRRE GOUDEL FAVORETO38F304519FTHUNDERCATS02:14:57
32384PAULA ANDREA SAVELI38F304520FELITE CORE02:18:18
33295DAIANE SCHIRMER30F304521FCT RUNNERS BLU02:18:20
34273JANAINA PEREIRA40F304522FAVULSO 02:20:37
35440MICHELE PEREIRA PESSANHA DOS SANTOS34F304523FSE DER A GENTE CORRE02:21:25
36223RENATA BORDINAO25F20297FTEAM GO WELLNESS02:24:22
37127FABIANA L FRANCISCI44F304524FTHUNDERCATS02:25:20
3842GABRIELA HELENA GIROTTO FEDRIZZI33F304525FEQUILIBRIUM INSANO02:25:55
39368PATRICIA CRUZ PORTES33F304526FAVULSO02:25:57
4045POLIANA MARA DA SILVA39F304527FEQUILIBRIUM INSANO02:25:58
41195RAQUEL TEREZINHA THOMAZ21F20298FJOAOMAFFPERSONALTRAINER02:26:14
42192KARINA EMILI SOARES BORGES29F20299FFLAY ACADEMIA02:29:15
43184ANA KARLA MIRANDA CONTI SILVESTRE29F202910FESPA?O CROSSFIT02:29:23
44199EMANUELLA MASIERO41F304528FLEAO BRANCO02:30:11
45415BRUNA KRASOTA MATOS27F202911FPERSONAL URBANETZ02:30:30
46422ANA PAULA STRAPASSON POLLI33F304529FREQUINTE02:33:46
47430MARLETE TEREZINHA DE SOUZA43F304530FREQUINTE02:34:09
48427JULIANE MEIRA BUENO24F202912FREQUINTE02:35:35
49425FERNANDA GODOY21F202913FREQUINTE02:35:36
50337ROSILEI DE LIMA CAMARGO GARCIA38F304531FARAUCARIA CAVEIRA CROSS02:38:19
51412LUCIANE NUNES LOPES45F304532FOUTLIERS02:42:55
5294AMANDA GABARDO20F202914FPONTO B PARKOUR02:44:00
53288SUZANA RODRIGUES GALVAO29F202915FCROSSAPUCARANA02:44:03
54103ELIANA MARIA DE ALMEIDA GOMES44F304533FPONTO B PARKOUR02:44:13
55110LIANE SCHEFFER34F304534FPONTO B PARKOUR02:44:13
56303CINTIA CRISTINE COSTA41F304535FMAIS BRASIL02:54:22
57143LETICIA DA SILVA SANTOS25F202916FACADEMIA LEAO BRANCO02:56:04
58183VIVIANE PEREIRA INACIO26F202917FEQUIPE LEAO BRANCO02:56:55
59196LUANA PEREIRA NUNES GRANGEIRO26F202918FLEAO BRANCO02:56:56
6023ELIANE JUNQUEIRA HORNING36F304536FCIA ATHLETICA 02:56:57
61290NAIARA DE FATIMA REGINALD24F202919FCROSSFIT APUCARANA02:56:58
62153GIULIA FERNANDA CASTRO DE MORAES LOPES26F202920FAVULSO02:57:04
63367MARIANA RODRIGUES ZAMPROGNA22F202921FAVULSO02:57:33
64328ELIS RIBAS CHIARINOTTI27F202922FTHE MEATPACK HOUSE02:57:44
65340GIULY MARTARELLO22F202923FAT HOME CROSS TRAINING02:58:05
66414VANIA APARECIDA MENEGHELLE31F304537FOUTLIERS02:58:45
67413MARIANA XIMENES23F202924FOUTLIERS03:01:52
68404CHARLENE LEAL TOMAZINO34F304538FMEGA RACE03:02:31
69400JI SAMBATI31F304539FHARDCORE TRAINNING03:05:08
70401JULIANA SAMBATI35F304540FHARDCORE TRAINNING03:05:08
71381T?NIA APARECIDA CIULIK31F304541FCAVEIRA CROSS ARAUCARIA03:07:09
72429LUANA PAVIN22F202925FREQUINTE03:09:07
73338SIMONE DE FATIMA PALMAS40F304542FARAUCARIA CAVEIRA CROSS03:17:54
7457DEBORA AUGUSTO VIDOLIN31F304543FFACA NA CAVEIRA03:25:12
7559DJULIANA SOLIVAM25F202926FFACA NA CAVEIRA03:25:13
7665LARISSA OLIVEIRA DE SOUZA26F202927FFACA NA CAVEIRA03:30:07
7764JHESSICA CAROLINE SENNA27F202928FFACA NA CAVEIRA03:30:08
7855CRISTIANE DE LIMA WAHLUS31F304544FFACA NA CAVEIRA03:30:09
79307TASSIA REGINA LARA FETTBACK34F304545FMEXA-SE PELA VIDA03:32:52
80308THAIS CRISTINA LARA FETTBACK DORELO37F304546FMEXA-SE PELA VIDA03:32:54
81105GIULIA WERNER PIPER17F14192FPONTO B PARKOUR03:38:28
82353AMANDA GOULAR DE OLIVEIRA32F304547FAVULSO03:45:05
83259JULIANA FERREIRA30F304548FAVULSO04:50:26

Elite Masculino

Coloc.NumeroNomeId.Fx.Et.Cl.Fx.Sx.EquipeTempo
1130LEONARDO MEIRA29M2029-MUNIBRASIL / PREFEITURA DE PINHAIS / OHPIS00:53:37
212CRISTIANO GERALDO DA SILVA31M3045-MAVULSO00:58:12
321RONALDO TOMAZ CORREA44M3045-MB?FALO 00:58:40
43ALLAN DIEGO SILVA AGUIAR26M20291MACADEMIA POLICIAL DO GUATUPE APMG00:59:39
522DANILO TOSHIO OMURA27M20292MCF TRAINER01:01:18
6108JOAO SOTER CORREA NETO28M20293MPONTO B PARKOUR01:02:19
75ANDERSON BARBACOVI22M20294MALIADOS 01:02:41
827RODRIGO FREHSE PEREIRA34M30451MCROSSFIT PONTA GROSSA01:05:10
92JONATHAN REINKE28M20295MA EQUIPE PLANET RUNNING 01:05:31
1078THIAGO DE SA31M30452MFULLBODY01:05:58
11444LEANDRO DA SILVA PIERROTI31M30453MTRAINUP01:06:18
1234VITOR HUGO BORIN OLIVEIRA26M20296MELITE CORE01:07:21
13320LUIS FERNANDO DA COSTA DORTI23M20297MSPIDER TEAM INDAIATUBA01:09:01
14256GEOVANE CONSTANTINO25M20298MAVULSO01:09:53
156DIEGO FLEITUX31M30454MALIADOS CROSSFIT01:11:10
16113LUIZ FELIPE CARMARGO REGIO31M30455MPONTO B PARKOUR01:12:12
17208CRISTIANO JOSE TEDESKI29M20299MR101:12:13
18100CASSIO DIAS DE ANDRADE JUNIOR26M202910MPONTO B PARKOUR01:12:14
1984FREDERICO OLINGER ROCHA34M30456MNEVER STOP RUNNING01:12:25
20122PAULO HENRIQUE SEVERINO DA SILVA26M202911MTEAM NORDESTE01:12:32
21329GUSTAVO ZONTA MADUREIRA29M202912MZONTA TEAM01:14:20
2272DERICK WESLEY COSTA28M202913MFIVE ONE FITNESS01:14:26
2332LUCAS AUGUSTO FELTRIN23M202914MCWBULLS01:14:53
24272YURI LEANDRO COELHO LYRA20M202915MAVULSO01:15:07
2526FLAVIO ANDRE DOFF SOTTA49M46991MCROSSFIT CASTRO01:15:23
26112LUCAS IGNASZEWSKI16M14191MPONTO B PARKOUR01:15:41
27258JOAO PAULO LAUS FERREIRA20M202916MAVULSO01:15:42
28319LUIS PAULO MAZZETTI30M30457MSPIDER TEAM01:15:43
2917RAFAEL CAMPOS21M202917MAVULSO01:16:02
3031LEANDRO CARVALHO CECHINEL24M202918MCWBULLS01:16:41
3119REINHARDH DIETRICH SCHALCHER33M30458MAVULSO 01:16:45
3273DIEGO MIGUEL CHORNOBAY27M202919MFIVE ONE FITNESS01:17:30
3381VINICIUS AUGUSTO REBONATO GOMES20M202920MIRONRUNNERS/FEX01:17:53
34451JEFERSON LUCAS MOTTA DE OLIVEIIRA32M30459M01:18:30
3580ROBERSON MACHADO23M202921MIRON RUNNERS01:18:40
3640EDUARDO ALEXANDRE ALVES35M304510MEQUILIBRIUM INSANO01:18:58
3735ANDRE ANDREATTA35M304511MEQUILIBRIUM INSANO01:18:59
3898ARTHUR CORREIA ZABLONSKY16M14192MPONTO B PARKOUR01:19:45
3915JOREU AZEVEDO ROMERO29M202922MAVULSO01:20:04
40152GEOVANE DIAS DE OLIVEIRA24M202923MAVULSO01:20:10
4171DENIEL VILLA NOVA CROVADOR35M304512MFIVE ONE FITNESS01:20:13
429ANISIO DE BRITO TRYECIAK41M304513MAVULSO01:20:14
4346RODOLFO MANUEL FELICIANO31M304514MEQUILIBRIUM INSANO01:20:15
44154GUNTER GUNS33M304515MAVULSO01:21:20
4524ANDERSON NEUMANN PELEGRINO29M202924MCOSENZA TEAM01:22:10
4633DANIEL HOHMANN31M304516MDHANN PERSONALTRAINNER01:22:23
47167CLAUDIO BARBOSA DA SILVA49M46992MBOMBEIROSP01:22:49
48109LEONARDO VALERIO PEREIRA18M14193MPONTO B PARKOUR01:22:57
49201JONATHAN MONFARDINI26M202925MLEAO BRANCO01:23:07
50106IGOR FELIPE SILVA REHBEIN27M202926MPONTO B PARKOUR01:24:51
51134OLIVER DA SILVA34M304517M-01:24:55
5238CARLOS EDUARDO FEDRIZZI33M304518MEQUILIBRIUM INSANO01:25:00
53305DHIOGO MANTOVANI SCOMASSON24M202927MMANSCO01:25:15
54149CLOVIS RICARDO RISTOW35M304519MAVULSO01:25:20
55147ANDRE FELIPE RIEG30M304520MAVULSO01:25:30
56383DIRCEU COSTA JUNIOR24M202928MELITE CORE01:25:30
57213MARCOS TOMAZ48M46993MSTUDIO PERSONAL THAIS LIMA 01:26:08
5814JOEL JUSTINO DE ALMEIDA58M46994MAVULSO01:26:23
59247APARECIDO MENDES DE CAMPOS JUNIOR25M202929MAVULSO01:26:51
60252EXPEDITO ALVES DE ALMEIDA NETO25M202930MAVULSO01:26:51
61138SAMUEL RODRIGUES DE OLIVEIRA33M304521M5CORRENDO01:26:55
62170SERGIO BAUMGARTENR JUNIOR37M304522MC T BAUMGARTNER01:26:57
63349DANIEL MEDICI LOURENSON46M46995MAVILSO01:27:07
64165WELINTON LEMES DOS SANTOS33M304523MAVULSO01:27:43
65174ALESSANDRO ZEN35M304524MCROSSX01:27:47
6610ARNO ANDRE BACH36M304525MAVULSO01:28:15
67116MURILO LEMES GROKOSKI30M304526MPONTO B PARKOUR01:28:24
68380DEJALMA DE ALMEIDA43M304527MCASTRO - RUNNES01:28:34
69136ADRIANO DO ESPIRITO SANTO33M304528M*01:28:47
70234ALLAN BORGES RIBEIRO26M202931MA VULSO01:28:57
71124GUILHERME OLIVEIRA28M202932MTERRITORIO01:29:28
72158KAIO VINICIUS MINELLA27M202933MAVULSO01:29:45
73145ADRIANO ZUCCO47M46996MAVULSO01:29:58
74378ELSTOR ROBERTO JACOBSEN36M304529MAVUSLO01:30:29
75198DENIS MASIERO JUNIOR23M202934MLEAO BRANCO01:30:45
7628OSMAIR GELSON DE LIMA FILHO29M202935MCROSSFIT STEEL GIANTS01:30:50
77175ALEXANDRE DA ROCHA MARAES36M304530MCROSSX01:30:55
78162RAFAEL KENJI YONEMURA27M202936MAVULSO01:31:22
7925ODAIR JOSE DA SILVA45M304531MCOSENZA TEAM01:31:33
80371RODRIGO VIVEIROS FREITAS26M202937MAVULSO01:32:03
81280LEANDRO MARCELO DA SILVA36M304532MCROSS APUCARANA01:32:32
82137TIAGO DA SILVA ANDRADE27M202938M*01:33:46
83200JESSE DE LIMA35M304533MLEAO BRANCO01:33:52
84159LUCAS PRONER PEREIRA18M14194MAVULSO01:34:08
8530CLEVERSON BUENO DE SOUZA27M202939MCWBULLS01:35:51
8697ANTONIO SANSEVERINO NETO31M304534MPONTO B PARKOUR01:35:52
87279RAMON SILVEIRA19M14195MCLUB DA CORRIDA01:36:22
88148ANDREO FREITAS24M202940MAVULSO01:36:29
8962GUSTAVO BCHNIA CERCI31M304535MFACA NA CAVEIRA01:38:18
9051ALYSSON LUIZ MENDES32M304536MFACA NA CAVEIRA01:38:19
91161PABLO DIEGO PRESOTTO BENTO30M304537MAVULSO01:39:25
92168ANDRE LUIZ CENCI32M304538MBRAVES FAZENDA01:39:28
93267MAYKON ALVES32M304539MAVULSO01:39:31
94139ALYSSON NAMBA28M202941MA. NAMBA TRAINING01:39:37
95140LUIZ CLAUDIO PIACENTINI51M46997MA.NAMBA TRAINING01:39:39
96169DIOGO PINHEIRO36M304540MBRUSQUE CROSSFIT01:40:04
97376ANDREY DOMINGOS DE LIMA37M304541MAVULSO 01:40:09
98255FILIPI SANTIN DE SOUZA33M304542MAVULSO01:40:59
99268MODESTO FERNAL FILHO31M304543MAVULSO01:41:16
10083FABIO MACHADO BIASUZ33M304544MMUNDO FITNESS 01:42:10
10129ANDERSON TAIDES FUCHS32M304545MCWBULLS01:42:24
102336LUCAS DA SILVA GARCIA43M304546MARAUCARIA CAVEIRA CROSS01:42:24
103115MAURICIO KAMINSKI MOTTER22M202942MPONTO B PARKOUR01:43:04
104453ATLETA N?O CADASTRADO0M00131M01:43:18
105452ATLETA N?O CADASTRADO0M00132M01:43:19
106150EDER JOSE DOS SANTOS33M304547MAVULSO01:44:38
107350ALESSANDRO PRADELA37M304548MAVULSO01:44:39
108375WILLIAN LUIS POLLI POLATO34M304549MAVULSO01:44:39
109382JOVELINO PEREIRA DOS SANTOS NETO32M304550MCOLA NO BAIANO01:45:14
110293MARCELO ARAUJO DE FREITAS50M46998MCROSSFIT BARIGUI01:45:17
111294THALISON ANCILIERO BAROSA26M202943MCROSSFIT ITAPEMA01:45:17
112182CAETANO GERTRUDES DOS REIS32M304551MEQUIPE LEAO BRANCO01:45:58
113244ALBERTO DE SOUZA JUNIOR21M202944MAVULSO01:47:00
114257JEFFERSON FERRARI30M304552MAVULSO01:47:01
115351ALESSANDRO RUI QUADROS25M202945MAVULSO01:47:48
116385RENAN NISHIMURA LIMA15M14196MELITE CORE01:48:10
117111LUCAS DRI BACIN29M202946MPONTO B PARKOUR01:48:50
118449ATLETA N?O CADASTRADO0M00133M01:48:58
119114MARCOS SAITO BABA44M304553MPONTO B PARKOUR01:49:12
120248ARLINDO STACHEVSKI JUNIOR46M46999MAVULSO01:50:09
121197DENIS MASIERO45M304554MLEAO BRANCO01:50:19
122321ALEXANDRO DOUGLAS BRAUNS CARVALHO39M304555MSTUDIO 36001:50:33
123397LUIZ CARLOS FURLAN FILHO51M469910MFACA NA CAVEIRA01:50:37
124398LUIZ FERNANDO FURLAN49M469911MFACA NA CAVEIRA01:50:38
125179FRANCISCO ERISMAR PEREIRA DE SOUSA45M304556MELITE CAVEIRA01:50:46
126322ROBERTO WILLY WISCHRAL42M304557MSTUDIO 36001:50:46
127335JOAO CARLIN FERREIRA PADILHA48M469912MARAUCARIA CAVEIRA CROSS01:51:02
128455EDUARDO NOVICKI DE OLIVEIRA27M202947MARAUCARIA CAVEIRA CROSS01:51:03
12990JOSIMAR PARASTCHUK31M304558MOS TRAVADOS01:51:35
130203PAULO SERGIO VALENTE VALENTE60M469913MLEAO BRANCO01:51:35
131202PAULO SERGIO ROGOZA VALENTE22M202948MLEAO BRANCO01:51:43
132163SAMIR DONEDA GEHA23M202949MAVULSO01:53:41
133220THIAGO SOUZA DOS SANTOS33M304559MTATU DE ASA01:54:30
134219RICARDO KRUPA23M202950MTATU DE ASA01:54:32
135166RODRIGO MATHEUS SINEIRO MACHADO19M14197MBALBOA TEAM 01:54:41
136431OCTAVIO CHEMIN15M14198MREQUINTE01:54:42
137409JEAN CLAUD KROSTRUBER20M202951MNAO01:55:30
138369RAFAEL MARCAO34M304560MAVULSO01:56:41
139261LUCAS MORGENSTERN23M202952MAVULSO01:57:01
14077VITOR GABRIEL DE CONTO22M202953MFIVE ONE FITNESS01:57:58
14187FABIANO CUHN35M304561MOS TRAVADOS01:59:09
142235GABRIEL VIEIRA VALENTE23M202954MAKVA01:59:19
143236PABLO SAIDELLES MACHADO26M202955MAKVA01:59:20
144237PEDRO HENRIQUE BOMBARDELLI24M202956MAKVA01:59:20
14591LUIZ THIAGO PADILHA PINTO28M202957MOS TRAVADOS02:01:18
14686ERICK ROBERTO KLEMBA24M202958MOS TRAVADOS02:02:08
14792MARCELO PARASTCHUK26M202959MOS TRAVADOS02:02:14
148296ALAN SABOTA PIMENTA39M304562MEQUILIBRIO02:04:42
14985DANIR GARBOSSA JUNIOR28M202960MOS TRAVADOS02:04:43
150141NELSON FERNANDES MARTINS46M469914MACADEMIA BIODIN?MICA02:05:18
151458PEDRO LUIS JORDANO48M469915M02:05:42
152156JOAO VICENTE MICHELOTTI53M469916MAVULSO02:06:32
15388GILMAR PACHECO DOS ANJOS24M202961MOS TRAVADOS02:07:37
15441FELIPE EDUARDO DE OLIVEIRA PEREIRA19M14199MEQUILIBRIUM INSANO02:07:39
155330ANDERSON CLEITON OLIANI27M202962MALFA02:07:45
156331CLEITON KRUGER28M202963MALFA02:07:48
157333FERNANDO BORGUESAN LIZ21M202964MALFA02:07:49
158464ERICK LUIZ SASSE31M304563MALFA02:07:50
159416TIAGO LARSEN ROCHA28M202965MPRO RUNNERS02:08:01
16043GUSTAVO MOTTA40M304564MEQUILIBRIUM INSANO02:08:31
161323BRUNO ROBERTO FONSECA30M304565MTEAM GOWELLNESS02:08:52
162325THIAGO SANTOS29M202966MTEAM GOWELLNESS02:09:10
163324FERNANDO FRANCISCO DA COSTA30M304566MTEAM GOWELLNESS02:09:11
164355EDICLEI CAVALHEIRO DE AVILA38M304567MAVULSO02:10:03
165254FELIPE ALMEIDA MARTINS28M202967MAVULSO02:10:26
166221EDUARDO GODZIKOWSKI30M304568MTEAM GO WELLNESS02:11:03
167104FILIPE DORIA ALARCON25M202968MPONTO B PARKOUR02:12:03
168206LUIS FERNANDO SANNI43M304569MNIGHT RUN BRUSQUE02:13:06
16974MARCO AURELIO MEIRA43M304570MFIVE ONE FITNESS02:13:44
17075RAFAEL VIEIRA26M202969MFIVE ONE FITNESS02:13:47
17136ANSELMO WILWERT57M469917MEQUILIBRIUM INSANO02:13:49
172260JURACI JUNIOR SANTINI34M304571MAVULSO02:15:32
173274LEONARDO QUINTINO33M304572MAVULSO 02:15:49
174266MARLON DAVID KIPPER31M304573MAVULSO02:16:48
175264LUIZ CARLOS BRAGAGNOLO32M304574MAVULSO02:16:49
176191THOMAZ ANDREWS ZENI TIZON28M202970MESQUADRAO SUICIDA02:17:42
177297DOUGLAS LUIS DOS SANTOS26M202971MEQUIPE SANHA?O02:18:09
178299JOAO PAULO DA SILVA26M202972MEQUIPE SANHA?O02:18:10
179298FAGNER DE SOUZA DOS SANTOS26M202973MEQUIPE SANHA?O02:18:11
180238OTHIALIS DE OLIVEIRA30M304575MATLETISMO APUCARANA #YOSHICOTEAM 02:18:12
181185DIOGO LANA28M202974MESQUADRAO SUICIDA02:18:52
182189LUCAS LUIZ DE SOUZA23M202975MESQUADRAO SUICIDA02:19:21
183292LUCAS SCHWARZ WOLF30M304576MCROSSFIT BARIGUI02:19:41
184188GERSON RUDOLF23M202976MESQUADRAO SUICIDA02:20:04
185186EDERSON CORDEIRO28M202977MESQUADRAO SUICIDA02:20:22
186190THIAGO SCHMITT24M202978MESQUADRAO SUICIDA02:20:22
187262LUCIANO ROBERTO SANTOS42M304577MAVULSO02:20:30
188146ALESSANDRO BAULER35M304578MAVULSO02:20:50
189187EWERTON DA SILVEIRA26M202979MESQUADRAO SUICIDA02:21:07
190435FELIPE BARBOSA DOS SANTOS36M304579MSE DER A GENTE CORRE02:21:25
191437HARLEN NOGUEIRA REIS DA SILVA22M202980MSE DER A GENTE CORRE02:21:30
192356FABIO HENRIQUE MORENO DOS SANTOS34M304580MAVULSO02:23:06
193366MARCOS AURELIO PEREIRA32M304581MAVULSO02:23:18
194227RODRIGO BENVENUTTI EING33M304582MVITA 02:23:36
195225PLAUTO DOMINGOS SPAGNOL FILHO32M304583MVITA02:23:40
196224GABRIEL REGO MONTANHA REBELLO31M304584MVITA02:23:42
197263LUIS VINICIUS HEINLE34M304585MAVULSO02:23:54
198222RENAN CASAGRANDE27M202981MTEAM GO WELLNESS02:24:21
199418JOSE LEANDRO XISTO VILELA28M202982MPURO SANGUE02:24:51
200420FERNANDO BARBOSA FERREIRA28M202983MPURO SANGUE 02:24:52
201129EDUARDO HENRIQUE LYCZACOWSKI MALVEZZI21M202984MTHUNDERCATS / CIA. ATHLETICA CURITIBA02:25:19
202251DENILSON DA SILVA41M304586MAVULSO02:25:19
203443MARCO AURELIO DE SOUSA39M304587MTEAM PERONNIO02:25:20
204250DANIEL URIO MENDES29M202985MAVULSO02:25:23
20548THIAGO HENRIQUE BARBOZA29M202986MEQUILIBRIUM INSANO02:25:57
206194JOAO GABRIEL PRADO MAFFEZZOLLI22M202987MJOAOMAFFPERSONALTRAINER02:26:14
207387FLAVIO MARCOS BENTO VENDRAMINI30M304588MELITE LONDRINA02:26:31
208388JUNIOR CESAR GARCIA CAMPOS37M304589MELITE LONDRINA02:26:39
209164SERGIO RICARDO DE SOUZA SILVA26M202988MAVULSO02:26:45
210389NELSON JOSE MONGE RIBEIRO36M304590MELITE LONDRINA02:26:53
211390THIAGO ORTEGA GUELFI32M304591MELITE LONDRINA02:26:57
212446ELIAS TORRES DE OLIVEIRA40M304592MUNIORT 02:27:01
213193ZEVAILDO BRUNO BORGES39M304593MFLY ACADEMIA02:29:09
214442MILTTON SALMORIA42M304594MSTUDIO HIGH INTENSITY02:29:11
215300JOAO PAULO37M304595MESPA?O CROSSFIT02:29:24
216275DIEGO BARRAS LOURENCO30M304596MBATUTINHAS02:30:04
217402PAULO HENRIQUE PUEHRINGER38M304597MJUBZ ASSESSORIA ESPORTIVA02:30:18
218215ELIO HOHMANN JUNIOR36M304598MTATU DE ASA02:30:46
219379THIAGO AUGUSTO CAMPOS MACEDO32M304599MBATUTINHAS02:31:22
220135RUDINEI FANTINI33M3045100M-02:32:59
221144JORGE LANG JUNIOR37M3045101MAEON CROSSFIT02:32:59
222210ROBSON HEIL30M3045102MSEM EQUIPE02:32:59
223131ADEMIR RASSWEILER33M3045103M-02:33:00
224132EDERSON IMHOF32M3045104M-02:33:00
225209MARCIO ANGIOLETTI JUNIOR31M3045105MSEM EQUIPE02:33:00
226155JEISON LUIS IMHOF31M3045106MAVULSO02:33:01
227334TROCA DE N?MERO. DE: 334 PARA: 4550M00134M02:33:45
228433ROBERTO POLLI34M3045107MREQUINTE02:33:47
229434STIVE LAZAROTTO35M3045108MREQUINTE02:34:16
230419MICAIL DE OLIVEIRA FERREIRA23M202989MPURO SANGUE02:34:35
231457ROMULO CEZARIO28M202990M02:34:36
232417FELIPE APARECIDO PEREIRA DOS SANTOS26M202991MPURO SANGUE02:34:47
233426FERNANDO OMAR LAZAROTO27M202992MREQUINTE02:35:44
234424EVERTON JOS? JARDWESKI22M202993MREQUINTE02:35:47
23549VITOR WALENDOWSKY24M202994MEQUILIBRIUM INSANO02:36:03
236230DIEGO ROMANINI29M202995M6?BPM LAGES02:39:17
237218LEANDRO JOSE DOS SANTOS38M3045109MTATU DE ASA02:39:28
238231EVERTON PADILH32M3045110M6?BPM LAGES02:40:38
239232MAICON BORGES GOB29M202996M6?BPM LAGES02:40:38
240229ARTUIR NUNES29M202997M6?BPM LAGES02:40:39
241306THIAGO MANTOVANI SCOMASSON30M3045111MMANSCO02:40:51
242287MCGYVER VALENTIM DE SOUZA30M3045112MCROSSAPUCARANA02:43:42
243277MARCELO DA SILVA GAMA29M202998MCADASTRO APUCARANA02:44:01
244286MAURICIO GAMA JUNIOR29M202999MCROSSAPUCARANA02:44:05
245282CLEYSSON LEORNARDO RAICHERT21M2029100MCROSSAPUCARANA02:44:18
246344GABRIEL DALLA COSTA23M2029101MAT HOME CROSSTRAINING02:46:41
247347RAPHAEL DA SILVA TAMBOSI29M2029102MAT HOME CROSSTRAINING02:46:41
248339GABRIEL LAZZAROTTO GUIDI28M2029103MAT HOME CROSS TRAINING02:46:57
249346LAERTE KARPEN21M2029104MAT HOME CROSSTRAINING02:47:02
250342LEONARDO MARTARELLO TORRI24M2029105MAT HOME CROSS TRAINING02:47:07
251343CAIO CESAR RODRIGUES30M3045113MAT HOME CROSSTRAINING02:47:20
252313VITOR GAROFALO20M2029106MPERSONAL HEALTH02:47:31
253312JOAO VICENTE ZIPF ROBERGE20M2029107MPERSONAL 02:47:33
254309EDUARDO GONCALVES BOZZOLA21M2029108MNAO02:47:39
255365MARCELO TIAGO CHIBIOR27M2029109MAVULSO02:47:45
256439MARCELO NASCIMENTO MUZI35M3045114MSE DER A GENTE CORRE02:48:11
257436GUILHERME FERREIRA BIGATE31M3045115MSE DER A GENTE CORRE02:48:13
258176DIEGO MACIEL OLIVEIRA SANTOS28M2029110MELITE CAVEIRA02:49:24
259276GUSTAVO HENRIQUE CAMPOS DE MACEDO35M3045116MBATUTINHAS02:50:57
260403ANDERSON JUNIOR DE BORTOLI31M3045117MMEGA RACE02:54:39
261304RICARDO LOPES DE OLIVEIRA42M3045118MMAIS BRASIL02:54:41
262142IAGO ANDRE GOMES DOMINGUES DE ANDRADE25M2029111MACADEMIA LEAO BRANCO02:56:06
263249CARLOS ARIEL LEIROZ PIRES36M3045119MAVULSO02:56:44
264281CLEBERSON GONCALVES DA SILVA30M3045120MCROSSAPUCARANA02:56:50
26518RUI CARLOS PERETTI46M469918MAVULSO02:56:51
266119VINICIUS ALMEIDA GOMES DE OLIVEIRA18M141910MPONTO B PARKOUR02:56:56
267128WESLEY TIMANA30M3045121MTHUNDERCATS / CIA ATHLETICA CURITIBA02:56:56
268289LUCAS FRANCO DA SILVA30M3045122MCROSSFIT APUCARANA02:57:01
269341GLAICO FRANCA MOREIRA26M2029112MAT HOME CROSS TRAINING02:58:07
270411ELTON BATISTA27M2029113MOUTLIERS02:58:43
271410EDUARDO PIERIN36M3045123MOUTLIERS02:58:44
272395MARCUS VINICIUS GOMES RUBIO30M3045124MEQUIPE TSUKA03:01:34
273396WELTON S JESUS27M2029114MEQUIPE TSUKA03:01:36
274394DIEGO AUGUSTO SOUZA REIS32M3045125MEQUIPE TSUKA03:01:47
275406JOHN IGOR BANDEIRA DA CRUZ34M3045126MMEGA RACE03:02:30
276408ROBSON BOHRER DA ROCHA26M2029115MMEGARACE03:02:30
277405FILIPE LEAL TOMAZINO19M141911MMEGA RACE03:02:31
278242VALMIR SERAFIM54M469919MAVANTTY03:03:03
279314HENRIQUE STEFFENS20M2029116MPONTO B PARKOUR03:03:24
280241PEDRO TIAGO SANTOS NEVES24M2029117MAVANTTY03:03:26
281239EDMILSON ALDO DE OLIVEIRA56M469920MAVANTTY03:03:28
282243WESLEY PALAZZI30M3045127MAVANTTY03:03:29
283240HELDER DE OLIVEIRA32M3045128MAVANTTY03:03:30
284374VICTOR ABDALLA BARONI19M141912MAVULSO03:08:41
285360HENRIQUE SHIGUENORI AOYAGUI19M141913MAVULSO03:08:42
286445LEONARDO OSINSKI19M141914MUFPR03:08:42
287358GUILHERME ANTONIO BEUREN CORDEIRO19M141915MAVULSO03:08:43
288361LUCCA PIOVESAN19M141916MAVULSO03:08:43
289423EDUARDO STRAPASSON NETO27M2029118MREQUINTE03:08:59
290177DIOGO HENRIQUE DE OLIVEIRA35M3045129MELITE CAVEIRA03:14:08
291180LUIZ GABRIEL BRANDANI MOTTA30M3045130MELITE CAVEIRA03:14:10
292181RODRIGO TREMURA TURMINA36M3045131MELITE CAVEIRA03:14:10
293391WELISON NUNES WATANABE22M2029119MEQIPE ROCKET DECOLANDO DE NOVO03:16:16
294448MATHEUS SATEL RODRIGUES25M2029120MCATERPILLAR03:16:16
295392EDUARDO HENRIQUE DOS SANTOS24M2029121MEQUIPE ROCKET DECOLANDO DE NOVO03:16:17
296393WESLEY NUNES WATANABE28M2029122MEQUIPE ROCKET DECOLANDO DE NOVO03:16:17
29760EDIJAIME DASMACENO BASTOS33M3045132MFACA NA CAVEIRA03:17:00
29852ANDERSON PRESTES42M3045133MFACA NA CAVEIRA03:17:09
299352ALISON LUIS DE RAMOS29M2029123MAVULSO03:18:58
30066LUCIANO BRANCO NUNES36M3045134MFACA NA CAVEIRA03:26:18
30163HARIEL CARLOS BARBOSA29M2029124MFACA NA CAVEIRA03:26:33
302317KAYRON GIOVANI AUGUSTO JUNIOR20M2029125MSELVAGENS RUNNERS03:27:39
303318MARCOS EDUARDO BOBATO19M141917MSELVAGENS RUNNERS 03:27:41
304271SANDERSON TADEU DA CRUZ33M3045135MAVULSO03:28:33
305269RICARDO VARELA32M3045136MAVULSO03:28:35
306283DIEGO SILVA30M3045137MCROSSAPUCARANA03:28:49
30768VICTOR HUGO CARVALHO34M3045138MFACA NA CAVEIRA03:29:16
30854CARLOS EDUARDO IARSCHESKI27M2029126MFACA NA CAVEIRA03:29:38
30958DIOGO SIQUEIRA34M3045139MFACA NA CAVEIRA03:30:03
31067MARCOS RENAN AMARO33M3045140MFACA NA CAVEIRA03:30:10
31161FELIPE MODROW28M2029127MFACA NA CAVEIRA03:30:56
31269VINICIUS OLIVEIRA DE SOUZA26M2029128MFACA NA CAVEIRA03:32:06
31356DANIEL HENRIQUE ARRUDA30M3045141MFACA NA CAVEIRA03:32:26
314102EDUARDO LEITE MOREIRA ALVES17M141918MPONTO B PARKOUR03:38:28
315370ROBERTO MONTEIRO JUNIOR38M3045142MAVULSO03:45:46
316377MICHEL ARCANJO BARBIERI JUNIOR26M2029129MAVULSO 03:45:52
31753CARLOS ALEXANDRE VIDOLIN30M3045143MFACA NA CAVEIRA04:19:09
318469ATLETA N?O CADASTRADO0M00135M09:28:03
319462ATLETA N?O CADASTRADO0M00136M09:32:16

For Fun Feminino

Coloc.NumeroNomeId.Fx.Et.Cl.Fx.Sx.EquipeTempo
1542REGIANE SCHROEDER GERCKER30F30451FMONKEYS BRAVES01:34:50
2649SUELI SEBRUX28F20291FTEIMOSOS01:41:10
3552STEFANI DA SILVA ROCHA CEZAK30F30452FTERRITORIO01:42:56
4650VIVIANE SEBRUX20F20292FTEIMOSOS01:49:34
5550NINA MARTHA SPINDOLA TSCHUMI27F20293FTERRITORIO01:51:28
6492ALEXSANDRA SERRA RITA41F30453FCONSENZA TEAM01:52:41
7680SIMONE MARINES DA COSTA29F20294FCROSSHEALTH01:55:26
8809LARISSA FRUCTUOSO33F30454F3 MARIAS 1 JOAO 01:59:16
9745ALINE LENHART NESI29F20295FAVULSO02:00:49
10741ISTER SOARES45F30455FSTUDIO ACADEMIA ISTER SOARES02:04:45
11544GISELE CRISTINA SILVA33F30456FPEDAL LIVRE BIKE CLUBE02:10:36
12781CAROLINE MOLLERI36F30457FCANDY02:10:49
13822VANESSA SUCHARA27F20296FAVULSO02:12:27
14818LUANA STEFANNY MENDES25F20297FAVULSO02:13:06
15574JESSICA ZIMKOVICZ25F20298FAVULSO02:14:27
16765LORENA SIBILA ROMANO27F20299FAVULSO02:16:01
17776THAINA BERNARDELLI26F202910FAVULSO02:16:22
18743ADRIANA DA SILVA POLLI33F30458FAVULSO02:17:12
19572CATIA ALINE MACHADO37F30459FAVULSO02:19:15
20655CINTIA BEHR29F202911FARTEREA02:21:44
21658ALINE DE FATIMA KAVINSKI30F304510FAVULSO02:22:30
22628MARIAN LEMOS PRADO33F304511FTAKAMASSA NOMURO02:22:31
23563JANAINA GARCIA LUCAS BATISTA37F304512FTURMA DO BARRO02:26:02
24553ADRIANA VIEIRA DE MENEZES41F304513FTURMA DO BARRO02:26:22
25568ADRIANA CRISTINA STOLF FISCHER35F304514FAVULSO02:26:38
26757GISELE ANSELMO DA SILVA37F304515FAVULSO02:27:13
27528CASSIA FERNANDA DOS SANTOS OLIVEIRA28F202912FFIVE ONE FITNESS02:30:04
28474GEOVANA AKEMI MATSUNE SILVA26F202913FAVULSO02:30:30
29727CARLA CAROLINE DA SILVA LOTTERMANN32F304516FSOLVAY02:30:39
30567TUANI CRISTINI RIZZO25F202914FTURMA DO BARRO02:32:31
31562ISABELLE WUILLEUMIER SALEMME30F304517FTURMA DO BARRO02:32:32
32560GESIELI APARECIDA PEIXE27F202915FTURMA DO BARRO02:32:37
33579CAMILA VENTURELLI CAVIGLIONE25F202916FAVULSO 02:33:01
34575KAROLINE SCHLICHTING30F304518FAVULSO02:33:08
35571CARLA VENTURELLI CAVIGLIONE28F202917FAVULSO02:33:25
36814ALINE CRISTINA DA SILVA33F304519FAVULSO02:35:00
37728CASSIANA ANDREA HERNANDES32F304520FSOLVAY02:35:50
38731LIVIA SOL BITTENCOURT RAMOS31F304521FSOLVAY02:35:51
39739TATIANE REGINA DE LIMA32F304522FSOLVAY02:35:52
40764LETICIA CHANDOCHA24F202918FAVULSO02:37:54
41774ROBERTA BARBOSA OLIVEIRA22F202919FAVULSO02:38:00
42805GABRIELA ABUD25F202920FMALKETING PMB02:38:39
43738TAMIRES SANTOS30F304523FSOLVAY02:40:10
44732M?NICA KOPPE SERENA29F202921FSOLVAY02:40:15
45548BRUNA FERNANDA DO COUTO27F202922FTERRITORIO02:40:43
46736POLYANA DALMOLIN27F202923FSOLVAY02:40:44
47496CASSIANA BLASZKOWSKI27F202924FCONSENZA TEAM02:40:52
48733PALOMA GOBETTI24F202925FSOLVAY02:41:01
49829JULIANA GUBER BOGO24F202926FTRP ADVENTURE02:43:19
50645MARINA MANSUR20F202927FTEIMOSOS02:46:42
51826IRIS DANIELA CAPIOTTO PEREIRA UGLIANO38F304524FSPIDER TEAM02:46:54
52504GREICE KELLY MAGALHAES DE QUEIROZ30F304525FCONSENZA TEAM02:47:46
53517PRISCILA CACILDA MARAFIGO18F14191FCONSENZA TEAM02:47:51
54493ALINE CRISTINA DE SANTANNA29F202928FCONSENZA TEAM02:48:07
55823VALDIRENE SANTOS28F202929FAVULSO 02:50:18
56573FABIANA LEAL31F304526FAVULSO02:50:27
57811FABIOLA DESCHAMPS30F304527FALAIA CROSSFIT02:50:34
58812PATRICIA SETTER29F202930FALAIA CROSSFIT02:50:34
59594LANA WIGAND26F202931FCWBULLS02:52:00
60772PRISCILA SOUSA ANTONIEVICZ DE GOUVEIA35F304528FAVULSO02:52:03
61703GISELE DAIANA FREITAS18F14192FPUCF02:53:42
62695CAROLINA AGHATA LITWINSKI23F202932FPUCF02:53:44
63633VIVIAN SERPA RIESENBERG32F304529FTAKAMASSA NOMURO02:53:56
64698EVELIN APARECIDA PEREIRA24F202933FPUCF02:54:48
65815CAROLINA DANYELE PARRO29F202934FAVULSO03:03:03
66495BARBARA DEL MORO26F202935FCONSENZA TEAM03:03:07
67498DEISIANE LIMA27F202936FCONSENZA TEAM03:03:09
68629PAMELA FRANZ30F304530FTAKAMASSA NOMURO03:06:02
69609JOYCE LODI PEREIRA28F202937FHIPSTER CROSSFIT03:07:40
70617STEPHANY MICHELE MANCARSZ23F202938FHIPSTER CROSSFIT03:07:42
71611MARCELA FARFUNS26F202939FHIPSTER CROSSFIT03:07:43
72761LEILIANE DOS SANTOS SOUZA38F304531FAVULSO03:08:09
73749CAROLINE FALK37F304532FAVULSO03:08:15
74636CAMILA MANSUR14F14193FTEIMOSOS03:18:59
75634AUDREY MANSUR40F304533FTEIMOSOS03:19:00
76587VANESSA THEULEN26F202940FCOSENZA TEAM03:20:29
77751DEISY CRISTINA M MACIANO43F304534FAVULSO03:24:37
78744ADRIANA DE FATIMA DE OLIVEIRA32F304535FAVULSO03:24:40
79546KETHELYN SOUZA21F202941FR103:31:03
80801VANESSA NASSIF39F304536FEQUIPE BICHAO03:32:55
81799MARCIA IVONE WODONOS43F304537FEQUIPE BICHAO03:32:58
82795KELI ANDRADE PUREZA35F304538FEQUIPE BICHAO03:38:51
83798MARCELY SANTOS SIQUEIRA34F304539FEQUIPE BICHAO03:38:55
84785ADRIANA THAISA SZUED27F202942FEQUIPE BICHAO03:38:56
85790CAROLINA APARECIDA DOS SANTOS40F304540FEQUIPE BICHAO03:39:05
86789ANA CRISTINA GOMES22F202943FEQUIPE BICHAO03:40:41
87639CASSIA FABIANE DA CUNHA34F304541FTEIMOSOS03:41:37
88641GISLAINE DE SOUZA CAMARGO36F304542FTEIMOSOS03:41:40
89796KELLY RODRIGUES FERREIRA30F304543FEQUIPE BICHAO03:42:52
90777VIVIANE QUINTO BERTASSO MELLER39F304544FAVULSO03:46:23
91747ARIOLETE PEIXOTO PANIAGUA25F202944FAVULSO03:46:27
92647MONICA DEMARCHI36F304545FTEIMOSOS03:47:21
93612NATHALIA REGINA COSTA CABRAL28F202945FHIPSTER CROSSFIT03:47:57
94607ELOISA CAETANO RIZZATTO30F304546FHIPSTER CROSSFIT03:48:01
95692APARECIDA WEISSHAAR16F14194FPUCF03:54:24
96707JENNIFER ALINE ALVES24F202946FPUCF03:54:26
97693BRUNA CASTILHO25F202947FPUCF03:54:27
98696DANIELE CATHERINE MICHALISZYN33F304547FPUCF03:54:27
99697DEISY ADRIANA FANTIN28F202948FPUCF03:54:27
100715M?NICA GREGORIO SARTURI31F304548FPUCF03:54:29
101721TATIANA MORANDI DOS PASSOS34F304549FPUCF03:54:30
102711LUANA STECIUK18F14195FPUCF03:54:32
103702GABRIELLA BURZINKI19F14196FPUCF03:54:33
104750DANIELLI LOUISE REZENDE GURSKI32F304550FAVULSO03:54:51
105701GABRIELA STORI23F202949FPUCF03:55:08
106694CARLA THAIS PACHECO23F202950FPUCF03:55:13
107714MARLOVA ZAPAROLI28F202951FPUCF03:55:15
108603ALINE QUISSAK BARTELEGA NOGUEIRA DE MATOS27F202952FHIPSTER CROSSFIT04:19:03
109613NICOLY FIORI BUENO GON?ALES22F202953FHIPSTER CROSSFIT04:19:06

For Fun Masculino

Coloc.NumeroNomeId.Fx.Et.Cl.Fx.Sx.EquipeTempo
1478MICHELL SILVA HOFFMANN29M20291MAVULSO01:03:15
2663LUCAS EIK BORGES FERREIRA24M20292MAVULSO01:04:58
3830NIELSON ADEMIR FERREIRA31M30451MTRP ADVENTURE01:07:43
4626JOAO AUGUSTO DE MIRA26M20293MTAKAMASSA NOMURO01:08:06
5482TIAGO BRUNO SOCZEK31M30452MAVULSO01:17:38
6559FERNANDO COLA?O SANTOS35M30453MTURMA DO BARRO01:18:31
7558EMERSON LOPPNOW DE CARVALHO30M30454MTURMA DO BARRO01:18:38
8484JEAN RODRIGO DA ROCHA31M30455MAVULSO 01:21:29
9627LUIZ ANTONIO REIS26M20294MTAKAMASSA NOMURO01:23:11
10485EDSON SANDRINI49M46991MBE HAPPY01:24:27
11527CARLOS HENRIQUE CESAR DOS SANTOS37M30456MFIVE ONE FITNESS01:24:41
12486LUCA SANDRINI16M14191MBE HAPPY01:24:49
13580CARLOS IVAN PEREIRA BORBA45M30457MAVULSO 01:27:33
14522RICARDO FRANCISCO DA SILVA40M30458MEQUIPE ROGERIO CAMPOS 01:27:50
15537RICARDO LUIS SOPRANO34M30459MGLADIADOR01:34:10
16637CARLOS EDUARDO SCARDAZAN HEEREN34M304510MTEIMOSOS01:34:24
17541LUCIANO FELLIPI37M304511MMONKEYS BRAVES01:34:51
18510LEONARDO REZENDE DE LIMA41M304512MCONSENZA TEAM01:35:33
19507GUSTAVO CASAS DE LIMA20M20295MCONSENZA TEAM01:35:34
20509LEONARDO 0M00131MCONSENZA TEAM01:35:34
21513MARCIO DE OLIVEIRA39M304513MCONSENZA TEAM01:35:34
22497DANIEL JOSE MOREIRA30M304514MCONSENZA TEAM01:41:31
23519RODRIGO0M00132MCONSENZA TEAM01:41:41
24549JOEZER RODRIGO CEZAK34M304515MTERRITORIO01:42:56
25630RICARDO PIFFER39M304516MTAKAMASSA NOMURO01:48:19
26543GILMAR COREA SIMON43M304517MPEDAL LIVRE BIKE CLUBE01:49:06
27640EDUARDO SPOLTI34M304518MTEIMOSOS01:49:13
28669ROBERTO OLEGARIO27M20296MCFPG01:50:40
29664LUCIANO TOMAZZONI27M20297MAVULSO01:50:45
30551RODOLFO USO DELDUCA32M304519MTERRITORIO01:51:22
31505GUILHERME AUGUSTO RITA18M14192MCONSENZA TEAM01:52:43
32471VINICIUS PINTO SAMPAIO DA CRUZ39M304520MAOK01:52:46
33685WALTER PIDLUZNYJ34M304521MPROA DO MATO01:52:53
34508JOSE SEBASTIAO PEREIRA NETO36M304522MCONSENZA TEAM01:52:54
35491ALEX TOME36M304523MCONSENZA TEAM01:53:02
36657PAULO SERGIO DE ALMEIDA31M304524MARTEREA01:54:45
37672EDUARDO SOMENSI FLAMIA36M304525MCROSSHEALTH01:55:32
38810ADRIANO CASAGRANDA28M20298MACADEMIA EVOLUTION01:55:56
39590COSME APARECIDO MACEDO34M304526MCWBULLS01:56:40
40600RONALDO MIRANDA DOURADO35M304527MCWBULLS01:56:41
41803EMERSON JOSE ZIVIGICOSKI37M304528MESQUADRAO EM A?AO 01:57:15
42592FRANCHESCO DOMENICO FRANZOI CALZOLAIO23M20299MCWBULLS01:57:52
43683HEWERTON LUIZ PACHECO ZIMNY24M202910MJACKASS02:00:06
44804RENAN ISSAO SATO25M202911MESQUILO COM RAIVA02:01:14
45646MARIO SERGIO RAMOS35M304529MTEIMOSOS02:03:09
46679SEBASTIAO LEAO41M304530MCROSSHEALTH02:03:25
47596MARCELO NOGUEIRA MALAGUINI J?NIOR29M202912MCWBULLS02:04:12
48598PATRICK ANDERSON LASKOSKI40M304531MCWBULLS02:04:12
49660FLEIPE EIK BORGES FERREIRA29M202913MAVULSO02:05:39
50581ANTONIO ANDRE FRANCO52M46992MAVUSLO02:05:51
51547MADHU SUKUMAR NAIR39M304532MR102:06:42
52545CARLOS ALEXANDRE CASSIMIRO31M304533MR102:06:56
53583ALISSON LEANDRO FAJARDO36M304534MBRAVES BB02:08:21
54601VANDERLEI GON?ALVEZ MENDES48M46993MCWBULLS02:09:40
55771ODAIR JOSE ALAIKO RIBEIRO42M304535MAVULSO02:09:52
56824ALAN SABOTA PIMENTA39M304536MEQUILIBRIO02:10:13
57780ANDERSON LOURENCO34M304537MCANDY02:10:48
58778WILSON VIEIRA DE GOUVEIA35M304538MAVULSO02:11:52
59675MAURICIO ROMANI24M202914MCROSSHEALTH02:13:09
60674JULIO CESAR MOSER25M202915MCROSSHEALTH02:13:14
61678ROGERIO ACCORSI MACHADO36M304539MCROSSHEALTH02:13:25
62666PEDRO PAES LANDIM HUBER16M14193MAVULSO02:14:16
63625JEAN CARLOS CARDOZO39M304540MTAKAMASSA NOMURO02:16:00
64671ARTHUR MAINARDI26M202916MCROSSHEALTH02:16:20
65623DELEON JOSE DE SOUZA35M304541MTAKAMASSA NOMURO02:16:32
66476JUAREZ FRANCISCO TOCZEK38M304542MAVULSO02:16:38
67481TIAGO ANTONIO TOCZEK32M304543MAVULSO02:16:44
68677RAFAEL SCHULZ33M304544MCROSSHEALTH02:16:58
69540EVANDRO GERCKER30M304545MMONKEYS BRAVES02:17:02
70673GIANCARLO EUCLIDES POSSAMAI25M202917MCROSSHEALTH02:19:56
71676RAFAEL CAMPOS22M202918MCROSSHEALTH02:20:03
72833KENNY ROGERSON BARBOSA DUARTE LAVERDE34M304546MU-BOX CROSS TRAINING 02:20:50
73831MARCELO FREITAS BRITO26M202919MU-BOX CROSS TRAINING02:21:13
74827LUIZ AUGUSTO GUAPO.31M304547MTEAM CAVEIRA UBOX02:21:14
75832ULISSES RIBEIRO DA SILVA FILHO28M202920MU-BOX CROSS TRAINING02:21:15
76473ANDRE MARQUES DA SILVA36M304548MAVULSO02:21:30
77472ALLAN HENRIQUE PINTO VERONA27M202921MAVULSO02:21:39
78631SADY LAZAROTTO JUNIOR35M304549MTAKAMASSA NOMURO02:22:04
79569ALLAN MONTEIRO VILELA33M304550MAVULSO02:22:29
80632SURIAN DA SILVA BARBOSA34M304551MTAKAMASSA NOMURO02:22:29
81768MACIEL LESNIEWSKI31M304552MAVULSO02:22:29
82779HELDER ADAMOS MARTINS DA SILVA30M304553MAVULSO 02:25:30
83555CEZAR AUGUSTO LAVAGNINI27M202922MTURMA DO BARRO02:26:02
84760JOSE VICTOR FELDHAUS DE SOUSA24M202923MAVULSO02:26:04
85754ELTON FAVA37M304554MAVULSO02:26:08
86670HUGO CHIAPPINA24M202924MCHIAPPINGA02:26:13
87770MAURICIO MALAFAIA43M304555MAVULSO02:27:13
88762LEONARDO RIBAS BRESSAN36M304556MAVULSO02:27:19
89752DENIS ALBUQUERQUE46M46994MAVULSO02:27:21
90620MARCELO MAZZONI34M304557MPATIO02:27:41
91487GILSON LUIZ MOTT40M304558MCHINELA VAI CANTAR02:28:51
92724WILLIAN ROTTAVA26M202925MROTTAVA02:29:31
93723CLAUDIO ROTAVA26M202926MROTTAVA02:29:42
94773RENAN DE FREITAS DOS SANTOS23M202927MAVULSO02:29:49
95524ALECSANDER ALVES CAVALHEIRO DE LIMA18M14194MFIVE ONE FITNESS02:30:02
96525ALEXSANDRO CASTRO DA SILVA43M304559MFIVE ONE FITNESS02:30:03
97534MIZAEL VIEIRA DE SOUZA34M304560MFIVE ONE FITNESS02:30:04
98536VICTOR GUIMARAES CASTRO DA SILVA17M14195MFIVE ONE FITNESS02:30:04
99532LUIZ RAFAEL BARBOSA FERREIRA32M304561MFIVE ONE FITNESS02:30:06
100533LUIZ RICARDO GARCIA28M202928MFIVE ONE FITNESS02:30:06
101526CARLOS EDUARDO FRANCO FERREIRA34M304562MFIVE ONE FITNESS02:30:07
102531ERLON LEANDRO ANTUNES41M304563MFIVE ONE FITNESS02:30:07
103725ADAGILSON APARECIDO DE MELO32M304564MSOLVAY02:30:40
104595MARCEL SHUNJI AOKI22M202929MCWBULLS02:31:15
105599ROBERTO MASSAYUKI MURAKAME47M46995MCWBULLS02:31:20
106582LEANDRO BONSENHOR ZANCISKOSKI24M202930MBONSENHOR02:31:45
107681DIOGO CAVALLARI37M304565MJACKASS02:32:18
108566SAULO GUIMARAES MAHFOUD31M304566MTURMA DO BARRO02:32:32
109556DIEGO BIONDO28M202931MTURMA DO BARRO02:32:40
110783CRISTHIAM GASPAR DOS SANTOS23M202932MENERGY02:32:52
111489LUCCA TORTATO20M202933MCHRISTIANBRAVERS02:32:55
112593FRED YASUGI AOKI46M46996MCWBULLS02:33:02
113578PEDRO CAVALARI JUNIOR26M202934MAVULSO02:33:29
114817ISAAC R DO AMARAL31M304567MAVULSO02:35:03
115656DANIEL LUZ PETRECHI33M304568MARTEREA02:36:27
116735PAULO ROBERTO VOLUZ FILHO26M202935MSOLVAY02:36:50
117766LUAN ZENITO DOS SANTOS26M202936MAVULSO02:37:02
118684KLEBER JULIANO MIOLA26M202937MJACKASS02:37:29
119554ALEXANDRE KAYSER46M46997MTURMA DO BARRO02:37:41
120753EDUARDO BLANK23M202938MAVULSO02:37:54
121756FELIPE AUGUSTO RIBAS26M202939MAVULSO02:37:59
122806LUCAS BRAGA DA SILVA24M202940MMALKETING PMB02:38:39
123506GUILHERME VIANA MAZZAROTTO34M304569MCONSENZA TEAM02:39:19
124511LUIZ CARLOS LESSA JUNIOR40M304570MCONSENZA TEAM02:39:39
125480RAFAEL DAL NEGRO26M202941MAVULSO02:39:46
126734PATRIK ERNANDES DA SILVA24M202942MSOLVAY02:40:12
127813CLAUDIO ADIR SOKULSKI50M46998MAVULSA02:40:30
128816EDSON JOSE SOKULSKI43M304571MAVULSO02:40:37
129518RAONI ALVES DOS SANTOS33M304572MCONSENZA TEAM02:40:42
130499EMERSON PAES DE CAMARGO37M304573MCONSENZA TEAM02:40:51
131503GIOVANNI CARDOSO LEAL33M304574MCONSENZA TEAM02:41:00
132737RAFAEL LINDOSO28M202943MSOLVAY02:41:33
133740WESLEY KRAVETZ DA LUZ24M202944MSOLVAY02:41:41
134828RODRIGO ORLANDO DA SILVA31M304575MTEAM CAVEIRA U-BOX02:45:51
135682GUSTAVO NUNES PINTO33M304576MJACKASS02:46:49
136654MURILO ALVES SABINO30M304577M#BONDEDAZAIPOSEMFREIO02:47:41
137653EDUARDO PARDAL41M304578M#BONDEDAZAIPOSEMFREIO02:47:42
138500ERALDO SANTANA47M46999MCONSENZA TEAM02:48:05
139576LUCAS AUGUSTO ABBOTT JACOB23M202945MAVULSO02:50:16
140821SANDERSON DANTAS DE SOUZA35M304579MAVULSO02:50:20
141577MICHAEL HENRIQUE DE PIERI33M304580MAVULSO02:50:26
142755EVARISTO KUCEKI JUNIOR25M202946MAVULSO02:51:56
143769MARCELO BREZOLIN BORTOLOTTO26M202947MAVULSO02:51:57
144652DARIO SHIGUEO KOSUGI JUNIOR24M202948MWONDERWARRIORS02:52:03
145530DHONATAN PATRICK WAGNER34M304581MFIVE ONE FITNESS02:53:33
146535THIAGO MAYDANA35M304582MFIVE ONE FITNESS02:53:52
147460ADENIR RODRIGUES CALISTO48M469910MPUCF02:54:09
148713LUIS FERNANDO SENFF26M202949MPUCF02:54:47
149523AIRTON SALDANA J?NIOR0M00133MFIVE ONE FITNESS02:54:49
150748CARLOS AUGUSTO SANTOS AMATUZZI38M304583MAVULSO02:56:57
151651WELLINGTON CORREIA29M202950MVIKKINGS02:57:27
152586MICHAEL AMARO DOS REIS RIBEIRO32M304584MBRAVES BB03:00:25
153512LUIZ EDUARDO VIDOLIN26M202951MCONSENZA TEAM03:03:03
154516MAX HAIDER DE SOUZA25M202952MCONSENZA TEAM03:03:06
155494ANGELO MANOEL28M202953MCONSENZA TEAM03:03:08
156501FERNANDO HENRRIQUE MENDES35M304585MCONSENZA TEAM03:03:17
157479PAULO CESAR MENDES COELHO28M202954MAVULSO03:04:18
158622ALEXANDRE SOUSA32M304586MTAKAMASSA NOMURO03:06:01
159621ALDOINO PEIXOTO VISINTAINER38M304587MTAKAMASSA NOMURO03:07:36
160624GUSTAVO JAIR RIESENBERG35M304588MTAKAMASSA NOMURO03:07:39
161610MARCEL NAKAI YOSHIHARA30M304589MHIPSTER CROSSFIT03:07:41
162616SILVIO TOALDO JUNIOR42M304590MHIPSTER CROSSFIT03:07:58
163604ANDERSON DAL BELLO34M304591MHIPSTER CROSSFIT03:07:59
164782ALCIONE ALELUIA24M202955MCERRO AZUL03:08:36
165619CENEN CRISTHIANO ALENCAR SOUZA32M304592MHULKS03:09:44
166643LUIS GUSTAVO GARCIA DE MEDEIROS35M304593MTEIMOSOS03:10:21
167758JOIGLER ESTEVAM29M202956MAVULSO03:11:08
168638CARLOS HENRIQUE GARCIA DE MEDEIROS36M304594MTEIMOSOS03:11:24
169635CAIO CESAR BARCELAR28M202957MTEIMOSOS03:11:28
170825IVAN ZISCHANG CISANG28M202958MLOKO E POKO03:13:33
171502GENEZI ELDER DOS SANTOS27M202959MCONSENZA TEAM03:20:28
172742THIAGO MACHADO DE ALMEIDA33M304595MSTUDIO FELIPE CRUZ03:22:42
173784ADENILSON APARECIDO DA SILVA FERREIRA43M304596MEQUIPE BICHAO03:33:23
174793DIOGO TEIXEIRA RODRIGUES28M202960MEQUIPE BICHAO03:39:04
175794ILTON ALVES PEREIRA SOBRINHO36M304597MEQUIPE BICHAO03:39:08
176788ALISSON POPLADE PEREIRA35M304598MEQUIPE BICHAO03:39:29
177802WAGNER WILLIAN STOCCO31M304599MEQUIPE BICHAO03:39:31
178792CRISTIANO ROBERTO DA SILVEIRA31M3045100MEQUIPE BICHAO03:39:33
179791CRISTIAN ALBERT DA COSTA DE FREITAS26M202961MEQUIPE BICHAO03:41:01
180642JOAO LUCAS MANSUR NEJM18M14196MTEIMOSOS03:41:48
181648PHELIPE MANSUR17M14197MTEIMOSOS03:41:49
182800RODRIGO LUIZ DO NASCIMENTO27M202962MEQUIPE BICHAO03:42:53
183767LUCAS WELDT SOUZA21M202963MAVULSO03:43:20
184644LUIS HENRIQUE RODRIGUES36M3045101MTEIMOSOS03:47:20
185709LAUDEMIR MENEGASSO20M202964MPUCF03:54:17
186712LUCIANO TAVARES RABELLO45M3045102MPUCF03:54:18
187720ROGER GUILHERME BENDLIN20M202965MPUCF03:54:24
188722WILLIAN TEODORO TUSSET28M202966MPUCF03:54:24
189691ANDRE ASSUN?AO23M202967MPUCF03:54:25
190704GUILHERME DA SILVA24M202968MPUCF03:54:25
191718RAPHAEL OSTROWSKI JAREMTCHUK22M202969MPUCF03:54:26
192699FELIPE MEDEIROS DA ROSA24M202970MPUCF03:54:28
193710LUAN DO CARMO23M202971MPUCF03:54:28
194719RODRIGO ASSUN?AO23M202972MPUCF03:54:28
195717RAFAEL SAMPAIO SANTOS22M202973MPUCF03:54:29
196700FERNANDO LUIZ GROSE27M202974MPUCF03:54:31
197708JONATHAN BINDER DA SILVA22M202975MPUCF03:54:31
198690ANDERSON RODRIGUES CALISTO21M202976MPUCF03:54:32
199688ALAN CORREA DE MELO22M202977MPUCF03:54:33
200689ALEXANDRE RODRIGUES CALISTO14M14198MPUCF03:54:33
201706IUR AZAMBUJA17M14199MPUCF03:54:38
202716PEDRO KAU? CAMARGO PETRY25M202978MPUCF03:54:41
203488FELIPE OLIVEIRA DOS SANTOS29M202979MCHRISTIANBRAVERS04:03:00
204490VALDINEI SANTOS32M3045103MCHRISTIANBRAVERS04:03:03
205618VITOR HUGO FERNANDES26M202980MHIPSTER CROSSFIT04:18:59
206605ANDERSON MACHADO VIEIRA30M3045104MHIPSTER CROSSFIT04:19:03
207614R?MULO ZAMPIER RODRIGUES27M202981MHIPSTER CROSSFIT04:19:04
208615SAMUEL ZACHARY THORNE27M202982MHIPSTER CROSSFIT04:19:07
209608GABRIEL GON?ALES17M141910MHIPSTER CROSSFIT04:37:03

Para dúvidas, sugestões ou reclamações entre em  contato conosco.

Gostou da prova??? Siga-nos no Facebook: ChronoMAX Brasil

RESULTADOS ATUALIZADOS 13/09/2017 ÀS 11:46HS

Matriz Curitiba
Rua Cel. José Leal Fontoura, 141, Xaxim, Curitiba – PR

E-mail: chronomax@chronomax.com.br

Telefones:
41 3779.0706 / 41 9151.0706 (Vivo)

Atendimento Whatsapp
41 9151.0706